Starlink 4128

operational
NORAD ID: 53249 Int'l Des: 2022-086 Owner: SPXS Country: US Constellation: starlink
LEOCIRCULAR

Starlink 4128について

説明を読み込み中...

リアルタイム位置

3D地球を読み込み中...

次回通過

高度履歴

Altitude vs Time

uPlot chart will show altitude changes over time

軌道要素

1 53249U 22086H 25351.90410306 .00000170 00000-0 28775-4 0 9991
2 53249 53.2163 201.2805 0001425 92.0044 268.1112 15.08834373188734
Epoch: Dec 17, 2025 • Age: 13 hours

現在のステータス

高度 541.0 km
速度 7.60 km/s
衛星直下点 30.68°N, 21.11°W
打ち上げ日 Jul 24, 2022
運用期間 3.4 years
タイプ internet

技術仕様

分類 Payload
質量 297.00 kg
乾燥質量 275.00 kg
総質量 297.00 kg
長さ 0.20 m
直径 2.80 m
スパン 9.00 m
形状 Box + pan
製造者 SPXS
バスタイプ Starlink
フェーズステータス In Orbit
所有者/国 SPXS/US

大規模コンステレーション

Loading constellations...